Overview Statistics Trail Chart Weather Telemetry Raw packets
 

This is the latest recevied weather packets stored in our database for station/object K1TTC. If no packets are shown the sender has not sent any weather packets the latest 10 day(s).

<< 11 12 13 14 15 16 17 >>
Time Temp. Humidity Pressure Rain* Wind** Luminosity Snow
1788444483 18.33° C 83% 1016.2 hPa 0 mm - 200 W/m² -
1788443884 18.33° C 83% 1016.3 hPa 0 mm - 67 W/m² -
1788443281 18.33° C 83% 1016.3 hPa 0 mm - 149 W/m² -
1788442681 18.33° C 82% 1016.3 hPa 0 mm - 107 W/m² -
1788442072 18.33° C 82% 1016.1 hPa 0 mm - 104 W/m² -
1788441493 18.33° C 82% 1016.1 hPa 0 mm - 111 W/m² -
1788440891 17.78° C 82% 1016.2 hPa 0 mm - 83 W/m² -
1788440289 17.78° C 82% 1016.1 hPa 0 mm - 63 W/m² -
1788439676 17.78° C 81% 1016.3 hPa 0 mm - 83 W/m² -
1788439071 17.78° C 81% 1016.7 hPa 0 mm - 70 W/m² -
1788438470 17.78° C 81% 1016.9 hPa 0 mm - 60 W/m² -
1788437868 17.78° C 81% 1017 hPa 0 mm - 63 W/m² -
1788437268 17.78° C 80% 1017.1 hPa 0 mm - 60 W/m² -
1788436663 17.22° C 80% 1017.2 hPa 0.25 mm - 54 W/m² -
1788436067 17.22° C 79% 1017.3 hPa 0.25 mm - 30 W/m² -
1788435462 17.22° C 79% 1017.5 hPa 0.51 mm - 23 W/m² -
1788434862 17.22° C 79% 1017.4 hPa 0.51 mm - 19 W/m² -
1788434267 17.22° C 78% 1017.4 hPa 0.76 mm - 14 W/m² -
1788433662 17.22° C 78% 1017.4 hPa 0.76 mm - 9 W/m² -
1788433067 17.22° C 78% 1017.4 hPa 0.76 mm - 7 W/m² -
1788432459 17.22° C 78% 1017.5 hPa 0.76 mm - 0 W/m² -
1788431862 17.22° C 78% 1017.4 hPa 1.27 mm - 0 W/m² -
1788431259 17.22° C 78% 1017.3 hPa 2.03 mm - 0 W/m² -
1788430665 17.22° C 77% 1017.3 hPa 2.03 mm - 0 W/m² -
1788430055 17.22° C 77% 1017.2 hPa 2.54 mm - 0 W/m² -

* Rain latest hour (hover to see other rain measurements)
** Current wind speed in m/s (hover to see current wind gust speed)